Location: STAR School
(35.3054°N, 111.2976°W)
Time: 14:57:58
(UTC-07:00)

Transit 2A Rocket - Pass Details

Date: 01 June 2019
Orbit: 587 x 917 km, 66.7° (Epoch: 24 June)

Event Time Altitude Azimuth Distance (km) Brightness Sun altitude
Rises 23:28:42 0° 345° (NNW) 3,359 9.5 -31.1°
Reaches altitude 10° 23:31:49 10° 1° (N) 2,361 8.3 -31.3°
Maximum altitude 23:35:53 21° 50° (NE) 1,632 6.9 -31.5°
Enters shadow 23:36:13 21° 55° (NE) 1,631 6.8 -31.5°
